ECMWFNIL_850_dewp_021.txt.gz
Dewpoint
1 -2 -8 -9 -9 -9 -8 -9 -9 -8 -9 -8 -8 -8 -8 -8 -8 -8 -8 -8 -8 -9 -8 -8 -8 -8 -8 -8 -8 -9 -8 -8 -9 -9 -9 -9 -9 -10 -10 -10 -10 -10
3 1 -6 -7 -6 -7 -8 -8 -8 -7 -8 -6 -6 -7 -6 -7 -8 -8 -8 -9 -8 -8 -8 -8 -8 -8 -8 -8 -8 -8 -8 -9 -9 -9 -9 -9 -9 -10 -10 -11 -11 -10
4 3 -2 -6 -4 -4 -5 -4 -4 -4 -6 -6 -6 -7 -6 -5 -7 -7 -7 -8 -7 -8 -8 -8 -8 -8 -8 -8 -8 -8 -8 -9 -9 -10 -10 -9 -9 -10 -10 -11 -11 -12
5 4 1 -3 -0 1 0 1 1 -0 -2 -4 -6 -8 -7 -5 -6 -7 -6 -6 -7 -7 -7 -7 -7 -8 -7 -8 -8 -8 -8 -8 -9 -9 -10 -10 -10 -10 -10 -11 -11 -12
6 5 3 0 2 5 4 3 3 2 1 -1 -3 -5 -6 -5 -4 -4 -5 -5 -5 -5 -5 -5 -6 -7 -7 -7 -7 -7 -7 -8 -8 -8 -8 -10 -10 -10 -10 -10 -10 -10
6 5 5 3 2 4 4 4 4 3 3 2 1 -0 -0 -0 0 -0 -1 -1 -2 -2 -3 -3 -3 -4 -5 -6 -7 -7 -7 -7 -7 -8 -8 -8 -9 -9 -10 -9 -10 -9
6 6 6 6 4 4 5 5 5 5 5 4 4 4 4 4 4 3 3 4 3 2 1 0 -0 -1 -2 -2 -3 -4 -5 -6 -6 -6 -6 -7 -8 -8 -8 -8 -8 -8
7 7 7 7 7 6 6 6 7 6 6 5 5 5 5 5 5 4 5 5 6 6 5 4 3 3 2 1 0 -1 -2 -3 -4 -4 -4 -5 -6 -6 -6 -7 -7 -7
8 8 7 8 8 7 7 7 7 7 7 6 6 5 5 5 5 5 6 6 6 7 6 6 5 5 5 4 4 3 2 1 -0 -1 -2 -3 -4 -4 -5 -5 -6 -6
8 8 8 7 7 7 7 7 7 7 7 7 6 6 5 5 5 5 6 6 7 7 7 7 6 6 6 6 5 5 4 4 3 2 1 -0 -2 -2 -3 -4 -4 -4
6 7 6 5 4 4 5 6 6 6 6 7 7 6 5 5 5 5 6 6 6 6 7 7 7 6 6 6 6 6 5 5 5 4 3 2 1 -0 -1 -2 -3 -3
6 7 7 5 3 3 4 5 5 4 4 5 5 5 5 4 4 4 4 4 4 5 7 7 7 7 6 6 6 6 6 6 5 5 5 4 3 2 1 -0 -1 -2
4 6 7 6 5 4 5 5 4 3 2 2 3 4 4 3 3 2 2 2 3 4 5 6 6 6 6 6 6 6 6 6 6 6 5 5 4 4 3 2 1 -1
6 7 8 7 6 6 5 4 3 4 4 5 6 5 4 4 3 3 3 4 4 4 4 5 6 6 6 6 6 5 5 6 6 6 6 5 5 4 4 3 2 1
5 5 4 4 3 1 -0 -1 -1 1 4 5 5 4 3 2 2 2 3 3 4 4 4 5 5 5 6 6 6 5 5 6 6 6 6 5 5 5 4 4 4 3
-3 -3 -4 -4 -4 -5 -4 -3 -2 -0 1 3 2 2 2 2 2 3 4 4 4 4 3 4 5 6 6 6 6 6 5 6 6 7 6 5 5 5 5 4 4 4
-6 -5 -5 -5 -4 -3 -2 -0 1 2 3 4 4 4 4 4 5 5 5 5 5 5 5 5 5 6 6 6 6 6 6 6 6 7 6 5 5 5 5 5 4 4
-7 -5 -4 -4 -3 -3 -2 -2 -0 1 2 3 4 5 5 5 5 5 5 5 4 5 5 5 5 5 6 6 6 6 5 5 6 6 7 6 5 5 5 5 5 4
-6 -6 -6 -5 -5 -4 -4 -3 -2 -1 -0 1 2 3 4 4 5 5 5 5 4 3 3 4 4 5 6 6 7 6 6 6 6 6 7 6 6 5 5 5 4 3
-6 -6 -5 -4 -4 -4 -4 -4 -4 -4 -3 -2 -0 1 3 4 4 4 4 4 3 1 1 2 2 3 4 5 6 6 7 7 6 6 7 6 5 5 5 4 4 3
-6 -6 -5 -5 -5 -5 -6 -7 -7 -6 -5 -5 -4 -2 -0 2 3 3 4 4 4 4 3 1 -0 -0 0 1 2 5 6 7 6 6 6 6 5 4 4 3 3 2
-6 -5 -4 -6 -7 -8 -10 -11 -10 -10 -9 -9 -9 -8 -4 -1 1 3 3 3 4 4 5 3 -1 -3 -2 -0 2 5 6 6 6 6 5 5 4 4 4 3 2 1
-5 -3 -3 -5 -7 -8 -8 -9 -10 -12 -12 -13 -15 -13 -8 -3 0 2 2 2 3 4 4 4 3 1 2 4 5 6 6 6 6 5 4 3 3 3 3 2 1 0
-4 -4 -3 -3 -4 -5 -6 -7 -9 -11 -11 -14 -17 -17 -13 -6 -2 1 1 2 2 3 3 4 4 3 4 5 6 7 7 6 5 4 3 3 2 2 1 0 -0 -0
-4 -4 -3 -2 -2 -4 -6 -8 -9 -9 -9 -10 -13 -17 -16 -8 -3 -0 1 2 2 2 3 3 3 3 4 5 6 6 6 6 5 4 3 3 2 1 0 -0 0 0
-4 -4 -5 -5 -5 -6 -7 -7 -6 -6 -6 -7 -9 -14 -16 -9 -3 -0 1 2 2 2 2 3 3 3 3 4 5 6 6 6 5 5 4 3 2 2 1 0 0 -1

ECMWFNIL_850_dewp_024.txt.gz
Dewpoint
-1 1 3 -2 -10 -8 -9 -9 -8 -9 -9 -9 -10 -9 -9 -10 -9 -9 -9 -9 -9 -9 -9 -8 -9 -8 -8 -8 -8 -9 -9 -9 -9 -9 -9 -9 -9 -10 -10 -9 -8 -9
0 2 5 1 -8 -9 -8 -9 -7 -7 -8 -8 -9 -9 -9 -9 -9 -9 -9 -9 -9 -8 -8 -9 -9 -9 -9 -9 -8 -9 -9 -10 -10 -10 -10 -10 -10 -10 -11 -11 -11 -11
1 3 5 3 -2 -6 -6 -6 -5 -4 -3 -4 -7 -8 -8 -8 -8 -8 -8 -8 -8 -8 -8 -8 -8 -8 -8 -9 -9 -8 -9 -10 -10 -11 -10 -10 -11 -11 -12 -12 -12 -13
0 3 3 4 2 -2 -3 -2 -2 -0 1 1 -1 -4 -5 -6 -6 -7 -6 -6 -7 -7 -7 -7 -7 -8 -8 -7 -8 -8 -8 -9 -9 -10 -10 -10 -11 -11 -11 -12 -12 -12
-2 2 2 3 4 2 -0 1 2 1 2 3 2 0 -2 -4 -4 -4 -4 -4 -4 -4 -4 -5 -5 -6 -6 -6 -7 -7 -7 -8 -8 -9 -9 -10 -10 -10 -10 -10 -10 -10
-1 2 2 4 5 4 2 2 3 3 3 3 3 1 0 -2 -2 -1 -1 -1 -2 -3 -3 -3 -3 -3 -3 -4 -4 -5 -6 -7 -8 -8 -8 -8 -9 -9 -10 -9 -9 -9
3 3 2 3 5 5 4 4 4 4 3 4 3 3 2 2 2 2 2 2 2 -0 -1 -1 -1 -1 -1 -1 -1 -1 -2 -3 -5 -6 -6 -7 -8 -8 -9 -9 -9 -8
4 3 2 3 5 5 5 5 4 4 5 4 4 4 4 4 4 4 2 2 3 3 3 3 2 2 1 1 2 1 0 -0 -1 -2 -3 -3 -5 -6 -6 -6 -7 -8
3 4 5 4 5 5 5 5 5 5 5 5 5 4 4 5 5 4 3 2 2 3 4 5 4 4 4 3 3 3 3 2 2 2 2 1 -0 -2 -3 -4 -4 -5
3 5 7 6 5 5 5 5 5 5 6 6 6 5 5 4 4 3 3 3 2 3 4 4 4 4 4 4 4 5 5 5 4 4 4 3 3 2 1 -0 -2 -3
5 6 6 6 7 7 6 6 5 6 6 6 6 6 5 5 4 4 4 4 3 4 5 5 4 4 4 4 5 5 6 6 6 5 5 5 4 4 4 3 2 0
7 6 6 6 7 7 7 6 6 6 6 7 7 6 6 6 5 5 5 5 5 6 6 6 6 5 5 5 5 6 6 6 6 6 6 6 5 5 5 4 4 3
7 6 6 7 6 6 6 7 7 7 7 7 7 7 7 7 6 6 5 5 5 6 7 7 7 7 6 6 6 6 6 6 6 6 6 6 6 6 5 5 5 5
7 6 7 7 6 6 6 6 5 6 7 7 7 7 7 6 5 5 5 5 5 6 6 6 6 6 6 6 7 7 7 6 6 6 6 6 6 6 5 5 5 5
6 6 6 6 6 6 7 6 6 5 5 5 6 6 5 4 4 4 4 4 5 5 5 5 5 5 5 5 6 7 7 7 7 6 6 6 6 6 6 5 5 5
6 5 5 5 5 5 5 4 3 2 0 0 2 2 1 1 1 1 2 3 4 4 5 4 4 4 4 4 5 6 6 7 7 6 6 6 6 6 6 5 5 5
1 0 -1 -1 -2 -2 -2 -2 -1 -1 -1 0 2 2 2 2 2 2 4 4 5 5 5 5 5 5 5 6 6 6 7 7 7 6 6 6 6 6 6 6 6 6
-4 -4 -4 -4 -4 -4 -4 -2 -0 1 2 3 4 4 5 5 5 5 5 5 6 6 5 5 5 5 5 6 7 7 7 7 7 7 7 7 7 6 6 6 6 5
-4 -3 -3 -4 -4 -4 -3 -2 -1 -0 1 3 4 5 5 4 4 4 4 5 5 5 5 4 3 3 4 5 6 7 7 8 7 7 7 7 6 6 6 6 6 5
-5 -5 -5 -5 -4 -4 -4 -3 -2 -1 -1 0 1 2 2 2 3 3 4 4 4 4 4 3 1 -1 0 2 4 6 7 7 7 7 7 7 7 7 6 6 5 5
-4 -5 -5 -5 -4 -4 -4 -4 -4 -4 -4 -4 -3 -2 -0 1 1 2 3 3 3 3 3 3 1 -1 -1 -0 1 2 3 4 5 6 6 7 7 7 6 5 5 4
-5 -5 -5 -4 -4 -4 -4 -5 -7 -10 -12 -11 -10 -9 -7 -5 -4 -2 -0 1 2 3 3 3 2 -0 -2 -3 -3 -2 -2 -1 1 3 5 6 6 6 6 5 4 4
-5 -5 -4 -3 -3 -4 -5 -6 -9 -12 -14 -15 -16 -18 -18 -17 -14 -8 -4 -1 0 1 2 2 1 -0 -3 -5 -5 -4 -3 -2 -0 2 4 6 6 6 6 5 4 4
-4 -4 -4 -3 -3 -4 -6 -7 -8 -8 -8 -9 -11 -13 -15 -19 -19 -13 -7 -3 -1 0 2 2 1 1 -1 -3 -3 -2 -1 -0 1 4 5 6 5 5 5 4 4 3
-4 -3 -4 -4 -4 -4 -4 -4 -5 -5 -6 -8 -8 -8 -10 -12 -15 -16 -12 -7 -3 -1 1 2 2 1 0 -0 -0 1 1 1 3 4 5 5 4 4 4 3 3 2
-3 -3 -4 -4 -4 -4 -3 -3 -4 -5 -6 -6 -5 -6 -6 -7 -9 -13 -16 -13 -7 -2 0 1 2 2 2 2 2 2 2 3 4 5 4 4 4 4 3 3 2 1

ECMWFNIL_850_dewp_030.txt.gz
Dewpoint
3 5 2 -5 -11 -10 -11 -12 -12 -12 -12 -10 -10 -10 -9 -7 -4 -4 -7 -9 -9 -9 -9 -9 -9 -10 -10 -11 -11 -11 -11 -10 -10 -10 -10 -10 -11 -10 -11 -11 -11 -12
5 5 2 -5 -10 -10 -10 -11 -11 -11 -10 -9 -10 -10 -10 -9 -7 -8 -9 -9 -9 -9 -9 -9 -9 -10 -11 -13 -13 -13 -13 -13 -14 -13 -13 -13 -13 -13 -13 -13 -13 -14
6 6 2 -5 -9 -9 -10 -9 -10 -10 -9 -10 -9 -10 -10 -9 -9 -9 -9 -9 -9 -9 -8 -8 -9 -9 -10 -11 -12 -13 -13 -13 -13 -14 -14 -15 -15 -15 -14 -13 -13 -13
7 6 1 -4 -6 -7 -9 -9 -7 -7 -9 -9 -9 -9 -10 -9 -9 -9 -9 -9 -9 -8 -8 -8 -8 -8 -9 -9 -10 -11 -11 -11 -10 -11 -11 -11 -12 -11 -11 -10 -10 -9
7 5 1 -2 -3 -6 -7 -6 -5 -6 -10 -9 -8 -9 -8 -8 -9 -9 -9 -8 -8 -8 -8 -8 -8 -8 -8 -8 -8 -9 -9 -10 -9 -9 -9 -9 -9 -9 -8 -9 -8 -8
7 3 0 1 -1 -4 -5 -5 -5 -6 -9 -9 -8 -9 -8 -8 -8 -7 -8 -8 -7 -7 -6 -6 -7 -7 -7 -7 -7 -8 -8 -9 -9 -9 -9 -9 -8 -9 -8 -8 -8 -8
7 2 0 2 2 0 -3 -5 -5 -6 -8 -6 -6 -7 -6 -6 -6 -5 -5 -5 -4 -4 -3 -3 -4 -3 -5 -5 -5 -6 -6 -7 -8 -8 -8 -8 -8 -9 -8 -8 -8 -8
6 2 1 2 4 3 0 -2 -1 -3 -6 -3 -1 -2 -1 0 -0 -1 -0 0 0 1 2 2 1 1 -0 -1 -1 -2 -2 -3 -4 -6 -6 -6 -7 -7 -8 -7 -6 -7
7 5 3 2 3 5 4 2 1 -2 -6 -3 1 2 3 3 3 3 3 3 4 4 5 5 5 4 4 3 3 3 3 3 2 1 -1 -2 -2 -3 -4 -5 -4 -4
8 8 6 3 3 5 5 3 1 -3 -6 -2 2 4 4 5 5 5 5 5 5 5 5 5 5 5 6 6 5 5 5 5 5 5 4 3 3 2 1 -1 -1 -1
9 9 7 4 2 5 6 4 1 -3 -3 1 4 5 6 6 6 6 6 6 5 5 4 3 4 5 6 6 5 6 6 6 6 6 6 6 5 5 4 4 3 3
9 8 6 4 3 5 5 4 3 0 -1 2 4 5 4 5 6 6 6 6 5 4 3 3 4 5 6 5 5 6 6 6 6 6 6 6 6 6 6 6 5 5
8 6 4 4 5 6 6 4 4 3 0 1 3 3 1 1 3 4 6 6 5 3 3 4 4 4 4 4 5 6 6 6 6 6 7 7 6 6 6 6 6 6
8 6 4 3 3 5 6 5 5 4 2 1 2 3 2 2 2 3 4 5 5 4 4 5 5 4 5 5 6 7 7 6 6 6 7 7 7 6 6 6 6 6
9 8 7 4 3 4 6 6 5 5 5 4 3 4 4 4 3 3 3 3 4 5 5 6 6 6 6 6 7 7 7 7 6 6 6 6 6 6 6 6 6 6
8 8 7 6 6 5 5 5 6 6 7 6 5 5 5 4 4 4 4 4 5 5 5 6 6 6 6 7 7 7 6 6 6 6 6 6 6 5 6 6 6 6
7 7 7 6 6 6 5 5 6 6 6 6 6 6 6 6 5 5 5 6 6 5 6 6 7 7 7 7 7 7 7 6 6 6 6 6 6 6 6 6 6 7
7 7 6 6 6 6 6 6 6 6 6 6 6 6 6 5 4 4 5 5 6 6 6 6 7 7 7 7 7 6 6 7 7 7 7 7 7 7 6 6 7 7
6 6 6 6 6 6 6 6 6 6 5 5 5 4 4 3 3 4 4 5 5 6 6 6 6 7 6 5 4 4 3 3 4 5 6 6 7 7 7 7 7 7
2 3 3 4 4 4 3 3 3 3 3 3 3 3 3 4 4 4 4 5 5 4 4 4 4 4 4 3 3 3 2 0 -1 -1 -1 1 2 3 3 4 5 6
-3 -2 -1 -1 -0 -0 -0 -0 0 1 2 2 2 2 2 2 3 3 3 3 3 2 1 1 1 1 1 2 3 2 1 -2 -5 -6 -6 -6 -5 -4 -3 -2 -0 2
-4 -4 -3 -2 -3 -3 -2 -2 -1 -0 -0 -0 -1 -1 -1 -1 -0 -0 -0 0 -0 -1 -1 -1 -0 -0 -0 0 1 1 0 -2 -4 -6 -7 -7 -6 -5 -5 -4 -2 1
-3 -4 -4 -4 -4 -4 -4 -3 -2 -2 -2 -2 -3 -4 -5 -5 -5 -5 -5 -5 -5 -4 -4 -3 -2 -2 -2 -1 -1 0 1 0 -1 -2 -4 -6 -6 -5 -4 -2 1 3
-3 -3 -4 -4 -4 -4 -3 -3 -3 -3 -4 -4 -6 -8 -8 -9 -10 -11 -12 -12 -12 -11 -11 -10 -9 -7 -5 -4 -2 1 2 1 1 0 -1 -3 -4 -5 -4 -1 1 3
-3 -3 -4 -4 -4 -4 -4 -3 -3 -3 -4 -6 -6 -7 -8 -8 -9 -9 -9 -10 -12 -13 -14 -14 -14 -13 -11 -9 -4 -1 1 1 2 2 2 1 0 -1 -2 -2 -0 2
-3 -3 -4 -4 -4 -4 -3 -2 -2 -2 -3 -4 -4 -4 -6 -7 -7 -7 -7 -9 -9 -10 -11 -13 -13 -14 -15 -13 -8 -3 -0 1 2 3 3 3 2 1 0 -1 -1 1

ECMWFNIL_850_dewp_033.txt.gz
Dewpoint
5 5 4 -2 -10 -11 -11 -12 -11 -12 -11 -11 -11 -9 -7 -7 -7 -7 -8 -8 -8 -8 -8 -8 -9 -9 -9 -9 -9 -9 -9 -10 -10 -10 -10 -11 -11 -10 -11 -12 -12 -13
5 5 5 -2 -10 -11 -11 -12 -11 -13 -14 -13 -12 -10 -9 -9 -9 -9 -8 -8 -8 -8 -9 -9 -9 -10 -10 -10 -10 -10 -10 -10 -10 -11 -12 -11 -12 -13 -13 -14 -14 -15
4 5 5 -1 -10 -10 -11 -12 -11 -12 -13 -15 -14 -11 -10 -10 -9 -9 -9 -8 -8 -8 -8 -8 -9 -9 -10 -10 -10 -10 -11 -11 -11 -12 -13 -13 -14 -13 -13 -13 -13 -12
2 4 6 2 -8 -11 -11 -10 -7 -5 -7 -10 -14 -12 -11 -10 -10 -9 -9 -9 -9 -8 -8 -8 -8 -8 -9 -10 -10 -10 -10 -11 -12 -13 -13 -13 -12 -12 -11 -10 -9 -8
3 4 6 4 -5 -10 -10 -9 -6 -3 -2 -5 -11 -11 -10 -10 -10 -9 -9 -8 -8 -8 -8 -8 -8 -8 -8 -8 -9 -9 -10 -10 -11 -11 -11 -11 -10 -9 -9 -8 -8 -8
5 5 6 4 -2 -8 -9 -7 -6 -4 -4 -6 -10 -9 -9 -10 -9 -8 -8 -8 -8 -7 -7 -7 -7 -6 -6 -7 -7 -8 -8 -9 -9 -10 -9 -10 -9 -9 -8 -8 -9 -8
6 6 6 5 0 -5 -6 -6 -7 -5 -4 -7 -9 -9 -9 -8 -8 -8 -7 -7 -6 -6 -5 -5 -4 -4 -4 -5 -5 -5 -6 -6 -6 -7 -8 -8 -9 -9 -9 -8 -8 -8
7 7 6 4 2 -2 -4 -5 -7 -6 -5 -8 -9 -8 -8 -8 -7 -6 -4 -3 -3 -1 -1 -0 -0 -0 -0 -1 -1 -2 -2 -1 -1 -2 -4 -5 -6 -7 -8 -7 -6 -6
8 8 6 4 3 1 -0 -1 -4 -5 -4 -6 -8 -6 -6 -6 -5 -2 0 2 2 3 4 4 4 4 4 3 2 2 2 2 2 2 1 -0 -1 -2 -3 -4 -3 -3
8 8 7 5 3 3 4 4 0 -2 -2 -3 -7 -5 -2 -1 -1 1 2 4 5 5 5 5 5 4 4 5 5 5 4 4 4 4 4 3 2 2 1 0 0 0
8 8 8 7 5 4 5 5 4 3 1 -1 -5 -5 -2 -0 1 3 4 5 6 6 6 6 5 4 3 4 6 6 5 5 5 5 5 5 4 3 3 3 3 3
8 8 8 8 7 7 6 5 6 5 4 1 -4 -4 -2 -1 -0 2 2 3 5 6 6 5 5 4 3 4 5 5 5 4 4 5 6 6 5 5 5 5 5 5
9 9 9 9 9 8 8 6 5 6 5 2 -2 -3 1 2 2 1 -1 -1 2 4 5 5 4 3 3 3 4 4 4 4 4 4 5 6 6 6 6 6 6 6
9 9 9 8 8 7 7 5 5 6 5 4 1 -0 1 3 4 2 0 -1 0 2 3 4 3 3 3 4 4 5 5 5 6 5 5 6 6 6 7 7 7 7
9 9 9 8 6 5 5 5 5 6 6 5 4 3 1 2 4 3 3 2 1 1 3 3 3 3 4 5 5 6 6 6 6 7 6 6 6 6 6 6 7 7
8 8 8 8 7 5 4 4 5 6 6 6 5 4 3 3 4 5 4 3 3 3 3 2 2 3 4 5 6 6 6 6 6 6 6 6 6 6 6 6 6 5
7 7 8 8 7 7 6 5 5 6 6 6 6 6 6 6 6 5 5 4 4 4 4 4 4 4 4 5 6 6 6 6 6 6 6 6 6 6 6 6 6 6
8 7 7 7 7 7 7 7 6 6 6 7 7 7 7 6 6 6 6 5 5 5 5 5 5 5 5 5 6 6 6 6 6 6 6 6 7 7 7 7 7 6
7 7 7 7 7 6 7 7 6 6 7 7 7 7 7 7 7 6 5 4 3 4 5 5 5 5 6 6 6 6 5 4 3 3 3 3 4 4 5 5 6 6
5 6 6 6 7 7 7 7 7 7 7 7 6 6 6 5 4 4 4 3 3 4 5 5 5 6 6 6 5 4 4 3 1 -1 -2 -3 -3 -2 -2 -1 1 2
-1 0 1 3 5 5 5 5 6 6 5 5 4 4 4 4 3 4 5 4 4 5 4 4 4 4 4 4 3 3 3 1 -1 -4 -6 -8 -8 -8 -7 -7 -6 -4
-4 -4 -3 -1 0 0 -0 1 2 3 3 3 3 2 2 2 2 3 3 3 3 3 2 1 1 1 1 1 1 2 2 0 -2 -3 -4 -5 -6 -8 -9 -8 -8 -7
-4 -4 -5 -5 -4 -3 -3 -3 -2 -1 1 1 0 -0 -1 -1 -1 -1 -1 -1 -1 -1 -1 -1 -1 -1 -1 -1 0 0 0 -0 -1 -1 -1 -1 -2 -4 -6 -7 -8 -5
-4 -4 -4 -5 -5 -4 -4 -4 -3 -2 -2 -2 -3 -4 -4 -5 -5 -6 -6 -6 -7 -6 -6 -6 -6 -6 -5 -4 -2 -2 -1 -1 -0 0 1 1 1 -0 -1 -3 -4 -4
-4 -3 -3 -3 -4 -3 -3 -3 -2 -2 -3 -3 -5 -6 -6 -6 -7 -8 -10 -10 -10 -10 -11 -10 -11 -11 -11 -10 -8 -6 -4 -1 0 1 2 2 2 2 1 -0 -2 -3
-3 -3 -3 -3 -4 -3 -3 -3 -3 -2 -2 -3 -5 -5 -6 -5 -6 -7 -8 -8 -8 -9 -9 -9 -10 -11 -12 -12 -13 -12 -8 -4 0 2 2 3 3 2 2 1 -0 -1